Temp
42 41 40 39 39 40 39 38 39 39 38 37 37 37 35 34 34 33 32 31 31 30 30 30 29 29 27 26 27 26 25 24 21 24 25 26 26 26 27 28 28 27 28
41 40 39 39 39 38 37 37 37 36 38 37 37 36 34 34 33 32 31 31 30 30 30 29 28 32 27 27 26 25 25 24 22 21 24 25 24 25 25 24 28 30 28
40 39 38 38 38 37 37 36 36 37 37 36 35 34 33 33 32 31 31 30 29 29 28 28 28 28 26 26 25 24 24 27 23 22 22 24 24 24 24 24 25 25 28
40 39 38 37 37 36 36 36 36 36 35 34 34 33 33 32 32 31 31 29 28 28 29 28 27 27 26 25 26 25 26 24 23 22 22 22 23 25 23 21 20 23 22
39 38 37 36 36 36 35 35 34 34 34 34 33 32 32 31 32 31 31 29 28 28 28 29 29 27 31 30 29 25 24 22 22 21 22 22 22 21 20 21 18 19 19
38 36 35 35 35 34 34 34 33 32 32 32 31 30 29 32 35 36 33 30 30 29 27 27 28 26 27 32 33 34 31 23 23 21 22 20 20 20 20 17 16 13 10
35 35 34 34 34 33 33 32 32 31 31 30 30 29 29 29 36 37 37 31 29 28 27 28 28 29 26 26 29 31 31 31 32 28 22 20 18 19 18 15 14 12 11
33 33 34 34 33 32 32 31 30 30 29 28 28 28 28 29 35 36 36 31 29 28 27 27 26 26 26 25 25 24 25 25 25 26 24 21 21 22 19 17 14 11 11
33 33 33 33 31 31 31 30 29 28 27 27 29 27 26 27 34 36 35 30 29 27 28 27 26 25 28 31 26 24 24 24 28 26 25 24 23 22 21 13 5 4 2
33 33 32 32 32 31 30 28 27 27 28 26 28 27 26 27 33 35 35 29 27 26 26 26 28 24 30 31 25 22 21 21 19 17 16 15 15 13 17 11 9 0 -0
33 31 31 31 31 30 27 24 24 24 25 21 23 25 25 25 26 34 36 30 27 26 25 24 26 31 32 31 32 23 22 18 14 9 7 7 9 9 10 11 10 7 1
31 30 28 27 28 28 25 21 20 21 18 18 16 18 21 24 26 31 34 35 33 26 24 23 23 30 30 31 24 26 23 16 8 4 3 5 6 6 7 7 7 6 7
27 25 25 24 25 24 23 20 18 16 17 17 19 19 20 22 23 30 33 34 34 30 25 26 29 30 30 24 25 23 13 9 5 -1 1 4 5 5 5 2 3 3 2
26 25 24 24 21 19 21 21 19 18 17 19 20 20 20 17 18 19 20 20 24 26 28 23 26 24 22 18 15 13 11 8 5 3 3 3 2 -2 -3 -0 -7 -4 -8
26 23 22 22 21 19 20 21 23 22 23 20 19 19 17 17 19 25 21 17 14 18 9 15 12 7 7 7 5 3 2 3 1 1 -4 -5 -3 -3 -4 -4 -6 -14 -17
22 21 22 22 21 21 21 19 28 30 30 32 32 24 22 27 30 31 32 32 31 29 11 10 9 8 9 8 7 2 1 2 2 -3 -9 -8 -8 -8 -8 -8 -10 -18 -13
26 23 21 20 19 18 14 16 18 18 32 33 33 34 34 33 32 33 34 34 32 31 19 15 14 12 12 10 9 4 1 2 -3 -8 -9 -9 -10 -12 -16 -14 -11 -12 -12
19 19 21 20 19 17 16 14 12 12 13 15 25 31 32 33 34 35 35 34 28 24 15 14 14 12 11 9 5 0 -3 -6 -7 -9 -12 -17 -21 -21 -23 -18 -14 -18 -13
18 17 17 15 13 13 11 10 11 10 14 17 12 20 20 28 30 32 33 29 26 19 15 12 11 10 7 3 0 -4 -5 -6 -9 -18 -22 -23 -24 -27 -22 -21 -17 -14 -13
12 15 13 10 8 8 9 11 9 11 14 15 14 15 12 12 16 16 14 11 15 16 11 11 7 1 1 1 -4 -9 -13 -19 -20 -23 -22 -24 -24 -27 -22 -21 -17 -15 -10
15 10 12 8 12 12 11 12 13 14 15 15 19 17 22 17 18 16 16 13 13 11 8 7 2 1 -1 -3 -5 -6 -8 -9 -17 -17 -24 -23 -28 -28 -24 -20 -17 -15 -10
14 13 10 14 10 8 10 10 9 12 14 16 15 11 26 19 15 16 15 13 11 8 6 4 3 2 -0 -2 -4 -5 -6 -8 -11 -15 -20 -22 -27 -26 -25 -23 -16 -12 -7
11 10 6 4 6 8 7 8 11 13 16 16 15 15 11 13 16 17 17 13 6 4 2 3 4 0 -3 -3 -3 -3 -5 -6 -6 -14 -18 -24 -26 -24 -24 -18 -13 -8 -5
6 8 10 10 8 9 10 11 10 12 14 15 14 16 15 15 15 15 15 8 4 3 2 2 3 2 -2 -5 -6 -7 -7 -7 -11 -15 -19 -25 -22 -23 -21 -15 -10 -5 -3
8 10 10 10 7 9 6 9 12 14 16 17 18 17 15 15 14 13 6 5 5 4 2 1 1 1 -0 -2 -5 -6 -8 -3 -6 -13 -21 -27 -23 -21 -17 -12 -7 -4 -2
4 5 5 4 6 8 10 8 11 10 13 13 13 13 15 15 13 7 5 4 4 4 3 1 0 -0 -1 -1 -2 -2 -2 -0 -5 -8 -14 -19 -17 -13 -10 -7 -2 1 4
MSLP
1012.35 1013.94 1015.46 1017.19 1018.44 1019.63 1021.65 1022.10 1022.78 1023.66 1023.96 1023.96 1024.70 1025.50 1026.16 1026.59 1027.33 1027.54 1027.72 1027.78 1027.83 1028.16 1028.52 1029.03 1029.44 1029.61 1029.75 1029.94 1030.15 1030.43 1030.74 1030.71 1030.79 1029.99 1029.71 1029.48 1029.33 1028.98 1028.60 1028.15 1027.64 1027.38 1026.72
1012.14 1014.11 1015.67 1016.85 1018.61 1019.40 1021.79 1022.06 1022.66 1023.67 1023.74 1024.02 1024.99 1025.38 1026.24 1026.87 1027.31 1027.47 1027.51 1027.65 1027.82 1028.27 1028.72 1029.12 1029.23 1029.44 1029.65 1029.73 1030.00 1030.08 1030.19 1030.31 1030.63 1030.11 1029.23 1029.16 1028.57 1028.22 1028.25 1027.76 1027.39 1026.97 1026.53
1012.83 1014.37 1015.74 1017.86 1018.53 1020.25 1021.09 1021.81 1022.60 1023.41 1023.78 1024.42 1025.06 1025.48 1026.24 1026.70 1027.18 1027.35 1027.52 1027.68 1028.05 1028.28 1028.47 1028.94 1029.02 1029.29 1029.38 1029.61 1029.56 1029.60 1029.77 1029.85 1029.84 1029.72 1029.24 1028.75 1028.40 1027.82 1027.88 1027.21 1026.93 1026.68 1026.11
1013.39 1015.14 1016.31 1017.52 1018.85 1019.92 1020.80 1021.90 1022.51 1023.30 1023.95 1024.63 1025.01 1025.36 1026.01 1026.50 1026.90 1027.18 1027.50 1027.68 1028.17 1028.17 1028.41 1028.60 1028.78 1028.91 1029.07 1029.17 1029.08 1029.32 1029.37 1029.15 1029.02 1028.90 1028.61 1028.40 1028.27 1027.68 1027.46 1026.84 1026.61 1026.41 1025.80
1013.64 1015.49 1016.82 1017.99 1018.86 1020.29 1021.23 1022.15 1022.99 1023.28 1023.68 1024.53 1024.85 1025.51 1025.97 1026.49 1026.72 1027.00 1027.28 1027.42 1027.83 1028.01 1028.12 1028.37 1028.56 1028.37 1028.32 1028.31 1028.38 1028.45 1028.65 1028.68 1028.53 1028.40 1028.31 1028.10 1027.90 1027.40 1027.07 1026.83 1026.83 1026.19 1025.62
1014.27 1016.04 1017.06 1017.97 1019.17 1020.33 1021.32 1022.16 1022.72 1023.33 1023.78 1024.33 1024.92 1025.33 1025.99 1026.37 1026.39 1026.34 1026.87 1027.22 1027.35 1027.56 1027.81 1028.15 1028.09 1028.05 1028.09 1027.78 1027.56 1027.56 1027.71 1027.75 1027.97 1027.84 1027.70 1027.85 1027.75 1027.37 1027.20 1027.22 1027.07 1026.76 1025.43
1015.14 1016.15 1017.02 1018.12 1019.12 1019.88 1020.98 1021.90 1022.85 1023.37 1023.89 1024.23 1024.71 1025.34 1025.93 1026.04 1025.97 1025.95 1026.22 1026.58 1026.92 1027.11 1027.23 1027.41 1027.34 1027.35 1027.48 1027.73 1027.38 1027.35 1027.35 1027.46 1027.29 1027.03 1027.50 1027.76 1027.74 1027.45 1027.51 1027.33 1027.31 1027.25 1026.61
1015.52 1016.22 1017.20 1018.24 1019.41 1020.39 1021.04 1021.64 1022.67 1023.30 1023.78 1024.27 1024.83 1025.25 1025.50 1025.65 1025.79 1025.80 1025.81 1026.09 1026.43 1026.42 1026.76 1026.99 1027.10 1027.07 1027.33 1027.35 1027.19 1027.22 1027.42 1027.47 1027.24 1027.23 1027.42 1027.84 1027.64 1027.39 1027.48 1027.31 1027.37 1027.19 1026.57
1015.73 1016.23 1017.19 1018.23 1019.30 1020.14 1020.97 1021.76 1022.58 1023.29 1023.87 1024.22 1024.65 1025.08 1025.32 1025.43 1025.27 1025.34 1025.33 1025.51 1025.73 1026.02 1026.27 1026.28 1026.55 1026.61 1026.63 1026.41 1026.56 1026.89 1026.99 1027.06 1026.88 1027.21 1027.51 1027.55 1027.39 1027.39 1027.31 1027.63 1027.78 1027.46 1026.16
1015.71 1016.37 1017.32 1018.12 1019.23 1020.07 1020.91 1021.85 1022.56 1023.07 1023.60 1024.11 1024.40 1024.74 1024.84 1024.96 1024.92 1024.82 1025.03 1025.32 1025.56 1025.59 1025.80 1025.77 1025.92 1026.03 1025.87 1025.82 1025.99 1026.36 1026.72 1026.99 1027.39 1027.73 1027.89 1027.67 1027.71 1027.90 1027.72 1028.14 1028.07 1027.90 1027.75
1015.86 1016.82 1017.78 1018.34 1019.27 1020.10 1021.19 1021.89 1022.48 1023.12 1023.55 1023.94 1024.22 1024.27 1024.44 1024.81 1024.93 1024.71 1024.60 1024.57 1024.74 1024.87 1025.20 1025.43 1025.37 1025.07 1025.23 1025.36 1025.28 1025.90 1026.27 1027.12 1027.87 1028.19 1028.10 1027.86 1027.93 1028.08 1028.10 1028.13 1028.19 1028.23 1027.91
1016.41 1017.11 1017.81 1018.92 1019.65 1020.40 1021.26 1021.89 1022.40 1022.93 1023.61 1023.96 1024.19 1024.59 1024.70 1024.79 1024.60 1024.17 1023.88 1023.73 1023.88 1024.44 1024.38 1024.49 1024.80 1024.69 1024.88 1024.95 1025.90 1025.95 1026.54 1027.50 1028.01 1028.19 1028.17 1028.11 1028.21 1028.18 1028.19 1028.30 1028.30 1028.19 1027.70
1016.73 1017.75 1018.60 1019.23 1019.89 1020.53 1021.01 1021.69 1022.59 1023.06 1023.51 1023.95 1024.50 1024.56 1024.12 1023.81 1023.68 1023.50 1023.30 1023.33 1023.29 1023.55 1023.51 1023.79 1024.19 1024.43 1024.66 1025.53 1025.69 1026.14 1027.12 1027.53 1028.00 1028.35 1028.35 1028.23 1028.21 1028.15 1028.17 1028.33 1028.15 1027.83 1027.30
1016.96 1017.83 1018.51 1019.17 1020.05 1020.28 1020.70 1021.48 1022.42 1022.75 1023.14 1023.59 1023.63 1023.48 1023.38 1023.39 1023.26 1023.32 1023.50 1023.26 1023.44 1023.09 1023.08 1023.55 1023.96 1024.55 1025.23 1026.01 1026.40 1026.75 1027.03 1027.40 1027.73 1028.15 1028.28 1028.33 1028.22 1028.19 1028.31 1028.24 1027.98 1027.76 1027.39
1016.90 1017.80 1018.52 1019.18 1019.81 1020.51 1020.90 1021.19 1021.32 1021.51 1021.57 1021.98 1022.41 1022.39 1022.68 1022.68 1022.59 1022.44 1022.65 1022.76 1022.85 1023.05 1023.36 1023.85 1024.39 1025.08 1025.63 1026.13 1026.60 1026.82 1027.08 1027.39 1027.74 1028.04 1028.30 1028.50 1028.43 1028.54 1028.40 1028.14 1027.98 1027.90 1027.65
1017.40 1018.13 1018.60 1019.11 1019.81 1020.37 1020.85 1020.90 1021.01 1021.01 1021.17 1021.36 1021.38 1021.46 1021.56 1021.65 1021.77 1021.83 1021.90 1022.02 1022.22 1022.58 1023.49 1024.00 1024.20 1024.61 1025.20 1025.64 1026.06 1026.59 1026.95 1027.21 1027.57 1027.98 1028.46 1028.74 1028.75 1028.70 1028.52 1028.08 1028.06 1028.08 1027.35
1017.14 1017.67 1018.19 1018.91 1019.53 1020.17 1020.49 1020.59 1021.01 1020.76 1020.73 1020.77 1020.80 1020.89 1020.89 1020.87 1021.02 1021.06 1021.11 1021.23 1021.57 1021.93 1022.54 1023.18 1023.72 1024.08 1024.62 1025.15 1025.75 1026.37 1026.74 1026.96 1027.49 1028.09 1028.52 1028.65 1028.67 1028.73 1028.89 1028.40 1028.12 1027.62 1026.65
1016.97 1017.42 1017.93 1018.39 1018.96 1019.54 1019.96 1020.39 1020.68 1021.15 1021.31 1020.75 1020.50 1020.47 1020.47 1020.40 1020.38 1020.36 1020.38 1020.55 1020.86 1021.11 1021.84 1022.42 1023.04 1023.41 1023.97 1024.69 1025.39 1025.98 1026.57 1027.12 1027.68 1028.09 1028.41 1028.56 1028.72 1029.06 1028.86 1028.46 1027.79 1027.21 1026.26
1016.88 1017.24 1017.62 1018.23 1018.99 1019.69 1020.04 1020.20 1020.34 1020.47 1020.55 1020.61 1020.50 1019.90 1019.67 1019.82 1019.97 1019.95 1020.02 1019.92 1020.33 1020.88 1021.44 1021.96 1022.50 1022.94 1023.57 1024.36 1024.93 1025.56 1026.19 1026.81 1027.26 1027.75 1028.11 1028.33 1028.45 1028.83 1028.58 1028.09 1027.36 1026.51 1025.75
1016.95 1017.16 1017.71 1018.55 1019.16 1019.36 1019.55 1019.65 1019.87 1020.08 1020.14 1019.93 1019.81 1019.71 1019.90 1020.23 1020.02 1019.75 1019.86 1020.00 1020.21 1020.38 1020.90 1021.43 1022.08 1022.52 1023.03 1023.74 1024.44 1025.14 1025.84 1026.42 1026.97 1027.52 1027.74 1027.83 1027.96 1028.22 1028.19 1027.53 1026.79 1026.06 1024.72
1016.67 1017.23 1017.72 1018.35 1018.61 1018.73 1018.90 1019.29 1019.45 1019.61 1019.60 1019.47 1019.33 1019.32 1019.48 1019.63 1019.39 1019.46 1019.56 1019.69 1019.95 1020.36 1020.80 1021.28 1021.93 1022.43 1022.82 1023.42 1023.96 1024.61 1025.28 1025.66 1026.17 1026.76 1027.11 1027.29 1027.45 1027.75 1027.11 1026.79 1026.03 1025.03 1023.75
1016.42 1017.07 1017.58 1017.73 1017.89 1018.27 1018.43 1018.64 1018.91 1018.93 1018.93 1019.02 1018.95 1018.98 1018.76 1018.69 1018.76 1018.67 1019.01 1019.27 1019.54 1020.00 1020.46 1020.86 1021.38 1021.83 1022.15 1022.61 1023.08 1023.78 1024.47 1025.03 1025.44 1025.87 1026.24 1026.45 1026.61 1026.61 1026.42 1025.96 1025.07 1023.87 1022.49
1016.15 1016.65 1016.98 1017.34 1017.67 1017.89 1018.04 1018.06 1018.11 1018.09 1017.93 1017.94 1018.18 1018.43 1018.62 1018.33 1018.09 1018.07 1018.21 1018.54 1019.01 1019.55 1020.08 1020.28 1020.54 1021.23 1021.83 1022.15 1022.51 1022.97 1023.51 1023.86 1024.17 1024.85 1025.31 1025.55 1025.78 1025.75 1025.59 1025.12 1023.98 1022.78 1021.47
1016.15 1016.59 1016.89 1017.02 1017.20 1017.34 1017.47 1017.55 1017.59 1017.58 1017.45 1017.31 1017.25 1017.19 1017.12 1017.15 1017.12 1017.23 1017.46 1017.88 1018.43 1018.92 1019.25 1019.57 1019.98 1020.56 1021.30 1021.92 1022.24 1022.65 1023.01 1023.29 1023.78 1024.16 1024.57 1025.07 1024.96 1024.73 1024.50 1023.91 1022.71 1021.46 1020.41
1015.96 1016.34 1016.53 1016.71 1016.94 1017.04 1017.16 1017.12 1016.94 1016.74 1016.72 1016.72 1016.59 1016.55 1016.56 1016.70 1016.69 1016.69 1016.89 1017.35 1017.91 1018.55 1019.10 1019.47 1019.88 1020.30 1020.77 1021.18 1021.69 1022.10 1022.37 1022.51 1022.83 1023.27 1023.86 1024.34 1024.14 1023.75 1023.45 1022.76 1021.38 1020.22 1019.06
1016.15 1016.44 1016.48 1016.59 1016.69 1016.78 1016.70 1016.52 1016.40 1016.33 1016.20 1016.08 1016.15 1015.92 1015.82 1015.82 1015.95 1016.28 1016.65 1017.09 1017.50 1017.85 1018.41 1019.07 1019.52 1019.95 1020.32 1020.60 1020.93 1021.22 1021.47 1021.65 1021.96 1022.23 1022.63 1023.15 1022.98 1022.47 1021.96 1021.17 1019.87 1018.87 1017.68
Wind_Speed
20 18 18 15 15 14 9 9 9 9 8 9 8 7 6 6 5 5 5 5 6 5 4 4 4 3 2 2 2 2 3 3 4 4 2 3 5 5 8 7 7 7 7
18 18 18 17 14 15 11 10 8 7 7 8 7 7 6 5 5 5 5 5 5 5 4 3 2 2 3 3 3 4 3 3 3 7 4 4 5 5 7 7 6 7 8
18 19 18 15 15 13 13 11 10 8 7 7 6 7 6 6 5 5 4 5 4 5 4 4 3 3 2 3 3 3 2 4 4 4 6 4 4 3 6 5 6 8 8
18 16 17 15 13 12 11 10 9 9 9 6 6 6 5 5 5 4 4 4 5 4 4 4 4 5 4 4 3 4 4 4 4 4 5 6 5 5 4 6 8 7 10
19 16 14 13 12 10 10 9 8 7 6 6 6 5 5 4 3 5 5 5 5 5 4 4 5 5 6 6 3 4 4 2 3 4 6 6 6 7 7 6 9 10 11
16 14 13 12 11 10 9 9 8 6 6 6 6 6 5 3 10 11 7 5 5 5 4 5 4 4 5 8 9 10 8 3 5 2 6 4 8 4 5 6 8 10 8
13 13 12 11 11 10 9 9 7 7 6 6 5 5 6 6 10 11 11 5 5 5 5 5 4 4 5 5 6 10 10 11 11 7 5 5 3 5 6 8 8 8 9
11 12 11 10 9 8 9 8 6 5 6 5 5 6 5 5 11 11 9 5 5 5 5 6 5 5 5 5 5 5 6 6 5 3 1 1 3 6 5 7 8 9 8
10 11 11 10 10 9 8 7 4 5 5 5 4 6 6 6 9 11 9 5 5 6 6 6 6 5 7 9 5 5 5 4 1 4 5 8 11 13 11 5 4 7 7
9 9 9 9 9 10 8 7 5 4 5 4 5 6 6 5 8 10 10 3 5 3 5 5 11 7 10 10 4 4 5 2 2 2 4 6 7 7 9 3 4 4 5
7 8 8 8 9 7 6 4 4 4 4 3 4 3 4 5 6 13 13 4 4 3 4 4 4 11 10 9 10 4 2 6 2 0 2 2 3 3 2 3 5 5 6
8 8 7 6 5 5 7 5 4 5 4 3 1 2 3 5 10 11 13 14 10 6 6 4 4 11 10 8 5 2 7 6 2 0 1 2 2 2 3 3 5 6 8
7 6 6 6 6 6 6 5 3 3 3 2 3 4 3 3 4 10 12 13 14 10 3 7 10 9 5 5 3 6 5 2 1 1 1 2 2 3 5 4 6 6 10
7 8 7 8 5 4 3 4 3 4 4 4 4 4 4 2 3 3 4 3 8 7 6 3 5 7 7 6 3 3 2 2 2 2 2 2 2 2 3 3 2 5 5
6 5 5 4 5 4 2 5 6 5 5 5 5 4 4 4 4 7 6 3 3 4 4 3 2 2 2 2 2 2 1 2 2 1 0 2 2 3 4 2 3 2 3
5 5 4 5 4 4 5 3 8 8 8 13 12 7 3 10 8 9 8 8 7 7 3 3 3 4 4 4 3 2 2 3 2 2 1 2 2 3 5 4 2 3 6
6 5 4 5 5 5 4 4 4 3 9 14 14 14 16 12 13 12 13 13 11 10 4 4 4 5 5 4 3 4 3 3 3 2 2 3 2 3 1 4 5 4 7
5 6 5 5 5 4 4 3 3 3 3 3 7 9 9 11 13 15 15 13 7 5 3 4 6 5 4 4 4 4 2 2 3 3 3 3 2 2 2 4 5 4 8
5 5 4 3 2 3 4 3 4 4 4 4 2 3 3 9 11 12 14 7 7 5 4 4 3 4 4 4 4 3 4 3 3 3 3 3 2 2 4 4 5 8 9
3 5 4 3 3 3 3 4 3 4 4 4 4 4 1 1 3 3 3 3 3 4 3 4 4 4 4 5 4 4 3 3 2 3 4 3 3 3 4 5 5 7 9
4 3 6 3 4 5 3 5 4 4 4 4 4 4 9 5 4 4 4 5 5 4 3 4 3 4 4 4 4 4 4 3 3 4 3 4 3 3 4 5 7 7 9
4 4 4 6 3 3 4 2 3 4 5 5 3 3 12 4 4 5 5 4 4 3 3 4 4 5 6 6 6 5 4 4 4 4 4 4 3 4 3 4 7 8 9
4 4 3 1 2 3 3 4 5 5 5 5 4 4 4 5 5 5 5 4 4 4 4 4 5 4 3 4 4 4 5 5 5 4 4 3 3 3 3 6 7 8 9
3 4 4 5 4 4 4 5 4 5 5 5 5 5 5 5 5 6 5 4 4 4 5 5 4 5 5 4 4 4 4 3 3 4 5 3 4 3 4 7 8 10 11
4 4 4 3 3 4 3 4 5 5 6 5 5 4 4 4 5 5 3 4 4 5 5 4 4 5 7 7 6 7 7 9 7 6 4 4 6 6 7 8 10 11 12
2 3 3 3 3 4 4 4 4 3 5 4 4 4 4 5 4 3 3 4 5 5 6 5 5 8 8 6 7 8 9 10 9 10 6 5 5 7 6 9 14 10 13
Wind_Direction
131 128 125 124 127 120 128 130 136 136 140 117 129 134 138 123 150 145 142 142 125 118 114 139 149 144 136 167 178 194 211 187 237 279 246 273 280 281 298 296 298 287 304
125 128 127 124 127 118 133 128 123 136 129 130 147 139 134 153 167 159 159 149 129 145 169 166 174 177 201 191 195 220 224 211 225 269 282 284 275 289 277 285 291 307 306
127 128 121 136 129 137 140 135 144 148 135 145 145 142 158 166 165 170 162 143 164 183 178 192 200 199 236 225 215 233 233 252 227 249 284 282 275 269 283 284 304 303 300
123 126 128 129 132 133 131 143 145 152 152 153 153 149 165 166 170 165 161 171 199 195 201 197 212 217 233 253 253 243 244 241 241 264 275 291 288 289 275 319 319 316 312
121 125 128 129 122 129 139 142 145 149 142 149 141 155 157 173 178 185 191 193 201 206 209 221 224 218 241 244 245 236 240 232 256 262 283 292 289 309 324 338 320 317 315
124 128 130 125 131 144 146 150 142 142 145 146 159 158 172 199 212 208 194 202 202 204 213 226 222 241 263 270 270 278 263 210 244 244 283 283 294 320 343 333 320 321 322
127 133 133 140 149 150 144 143 151 161 151 155 159 166 202 211 222 222 224 192 205 214 217 227 228 218 231 248 277 276 281 281 276 288 298 293 315 355 337 320 313 300 292
134 135 139 146 147 145 141 150 154 148 156 158 185 195 204 222 226 231 233 217 223 226 225 224 226 227 233 238 243 248 250 253 269 279 112 325 310 341 338 313 326 302 292
151 146 146 145 144 147 160 162 135 139 166 187 187 193 204 231 232 233 234 221 236 232 222 215 225 236 238 252 238 246 260 257 341 60 18 350 350 348 337 357 331 332 319
156 142 140 141 152 166 169 152 146 168 185 177 191 201 202 228 239 239 239 217 239 234 225 225 229 222 252 249 227 226 251 223 95 351 335 353 7 346 353 360 326 324 313
120 123 143 156 166 153 140 140 152 168 165 161 187 216 224 222 243 244 244 219 221 231 226 216 218 243 251 254 266 166 217 123 84 358 309 347 356 327 318 332 331 309 290
145 161 151 138 136 146 157 159 148 143 144 185 137 300 252 236 228 243 249 249 244 227 232 205 210 231 236 257 123 141 106 117 112 33 25 358 291 288 318 315 297 283 273
140 135 135 146 162 170 159 131 121 134 129 160 205 232 237 218 235 259 263 259 253 254 213 212 215 219 230 119 119 112 94 88 79 35 298 268 288 311 316 296 273 273 282
139 154 167 167 157 135 117 125 132 166 182 204 225 231 247 224 253 253 246 254 272 270 259 192 166 139 152 131 95 104 128 140 161 223 242 291 313 344 299 275 271 311 291
154 154 143 139 159 141 149 177 192 210 178 181 218 196 219 246 238 222 206 210 216 219 97 85 108 113 158 160 152 142 138 158 182 200 189 295 314 306 288 288 297 304 250
137 153 168 156 154 171 191 216 239 230 225 236 233 206 208 237 226 232 233 245 226 214 96 163 194 189 199 192 195 194 202 201 205 173 213 242 261 283 293 310 277 236 283
157 158 155 160 170 178 186 185 216 329 251 243 244 248 249 242 236 246 247 242 235 220 190 198 206 197 203 195 183 186 206 188 149 172 217 232 231 264 291 292 283 270 288
173 167 173 181 183 178 182 180 156 179 228 273 256 246 255 260 263 264 253 239 233 232 189 186 205 187 177 182 185 181 181 169 202 212 225 219 215 210 300 280 283 276 293
170 189 179 156 129 146 162 167 184 191 216 231 271 275 272 256 261 259 255 239 233 210 194 198 186 172 172 175 177 166 174 193 200 192 223 214 217 176 265 250 275 283 280
185 170 152 131 147 165 182 192 198 212 223 224 212 224 202 158 226 218 220 215 216 218 184 190 189 175 169 172 165 163 172 187 199 213 236 227 218 192 254 272 271 285 292
167 142 151 153 192 195 185 204 203 201 225 229 238 196 216 215 220 222 229 218 226 218 196 188 175 176 168 166 161 171 195 212 199 224 220 233 202 245 224 248 271 272 277
161 171 179 204 176 188 214 184 184 214 224 234 236 230 245 228 213 222 230 223 212 199 178 169 178 186 180 180 174 175 195 217 220 220 227 226 217 239 250 255 273 277 284
168 176 182 196 187 183 199 204 216 214 222 220 212 218 212 233 231 232 227 210 190 188 182 178 170 175 175 172 168 175 188 211 216 188 215 217 229 244 226 269 279 289 292
160 182 198 210 201 211 215 224 217 220 224 224 216 228 223 220 223 227 220 187 185 183 176 178 178 172 165 177 183 197 215 222 208 212 207 199 245 251 255 264 271 282 285
189 202 212 209 198 211 214 221 221 219 225 227 236 230 222 231 237 232 185 181 181 178 183 173 165 178 185 185 194 206 215 236 223 203 194 190 233 250 257 268 277 284 283
199 204 210 202 217 219 220 215 226 213 227 228 230 230 227 235 234 202 179 178 180 176 170 175 184 191 192 199 206 212 224 235 232 229 203 200 231 252 250 262 277 278 288